Location: Area 52 Observatory
(34.2620°N, 119.2590°W)
Time: 09:23:28
(UTC-07:00)

Hubble Space Telescope - Pass Details

Date: 24 March 2019
Orbit: 536 x 540 km, 28.5° (Epoch: 17 October)

Event Time Altitude Azimuth Distance (km) Brightness Sun altitude
Rises 19:29:15 0° 216° (SW) 2,668 4.8 -4.4°
Reaches altitude 10° 19:32:26 10° 190° (S) 1,780 3.5 -5.1°
Maximum altitude 19:34:35 14° 158° (SSE) 1,550 2.9 -5.5°
Drops below altitude 10° 19:36:44 10° 127° (SE) 1,784 2.9 -6.0°
Enters shadow 19:37:56 - 114° (ESE) 2,073 3.1 -6.2°
